Location: ??
(35.5052°N, 139.7262°E)
Time: 15:52:33
(UTC+00:00)

Cosmos 1656 Rocket - Pass Details

Date: 20 June 2021
Orbit: 794 x 847 km, 71.1° (Epoch: 30 July)

Event Time Altitude Azimuth Distance (km) Brightness Sun altitude
Rises 15:33:23 0° 344° (NNW) 3,414 7.7 -29.9°
Reaches altitude 10° 15:35:56 10° 349° (N) 2,475 6.9 -29.7°
Maximum altitude 15:41:27 51° 65° (ENE) 1,058 4.3 -29.4°
Enters shadow 15:42:13 47° 91° (E) 1,100 4.3 -29.4°
